TimeEDT,TemperatureF,Dew PointF,Humidity,Sea Level PressureIn,VisibilityMPH,Wind Direction,Wind SpeedMPH,Gust SpeedMPH,PrecipitationIn,Events,Conditions,WindDirDegrees,DateUTC
12:53 AM,73.9,71.1,91,29.75,6.0,SSE,3.5,-,N/A,,Scattered Clouds,160,2013-09-02 04:53:00
1:53 AM,75.0,70.0,84,29.75,9.0,SW,5.8,-,N/A,,Overcast,230,2013-09-02 05:53:00
2:53 AM,75.0,70.0,84,29.74,10.0,SW,5.8,-,N/A,,Overcast,220,2013-09-02 06:53:00
3:53 AM,73.0,70.0,90,29.73,9.0,SSW,4.6,-,N/A,,Clear,200,2013-09-02 07:53:00
4:53 AM,73.0,69.1,87,29.73,9.0,SW,5.8,-,N/A,,Clear,220,2013-09-02 08:53:00
5:53 AM,73.0,69.1,87,29.73,8.0,SW,8.1,-,N/A,,Clear,230,2013-09-02 09:53:00
6:53 AM,73.0,70.0,90,29.76,8.0,WSW,5.8,-,N/A,,Overcast,240,2013-09-02 10:53:00
7:01 AM,73.4,69.8,88,29.77,8.0,WSW,6.9,-,N/A,,Overcast,240,2013-09-02 11:01:00
7:36 AM,73.4,69.8,88,29.78,6.0,WSW,6.9,-,N/A,,Overcast,240,2013-09-02 11:36:00
7:53 AM,73.0,70.0,90,29.77,5.0,SW,8.1,-,N/A,,Overcast,230,2013-09-02 11:53:00
8:20 AM,73.4,69.8,88,29.78,5.0,SW,8.1,-,N/A,,Mostly Cloudy,220,2013-09-02 12:20:00
8:53 AM,73.9,70.0,87,29.77,6.0,SW,8.1,-,N/A,,Partly Cloudy,230,2013-09-02 12:53:00
9:53 AM,75.0,71.1,87,29.78,6.0,West,8.1,-,N/A,,Overcast,260,2013-09-02 13:53:00
10:43 AM,75.2,69.8,83,29.79,6.0,West,10.4,-,N/A,,Haze,260,2013-09-02 14:43:00
10:53 AM,75.0,69.1,82,29.78,6.0,West,10.4,-,N/A,,Haze,270,2013-09-02 14:53:00
11:05 AM,75.2,69.8,83,29.80,6.0,West,10.4,-,N/A,,Haze,270,2013-09-02 15:05:00
11:53 AM,77.0,70.0,79,29.79,6.0,West,10.4,-,N/A,,Haze,270,2013-09-02 15:53:00
12:37 PM,75.2,69.8,83,29.80,6.0,WNW,13.8,-,0.00,Rain,Light Rain,290,2013-09-02 16:37:00
12:53 PM,73.9,71.1,91,29.79,5.0,WNW,12.7,-,0.00,Rain,Light Rain,290,2013-09-02 16:53:00
1:38 PM,75.2,69.8,83,29.81,7.0,NW,15.0,-,0.00,,Overcast,320,2013-09-02 17:38:00
1:50 PM,75.2,69.8,83,29.81,7.0,NW,12.7,-,0.00,,Overcast,320,2013-09-02 17:50:00
1:53 PM,73.9,69.1,85,29.80,6.0,NNW,11.5,-,0.00,,Haze,330,2013-09-02 17:53:00
2:53 PM,73.9,66.0,76,29.80,10.0,NW,10.4,-,N/A,,Overcast,320,2013-09-02 18:53:00
3:10 PM,73.4,66.2,78,29.81,10.0,NW,6.9,-,N/A,,Overcast,320,2013-09-02 19:10:00
3:53 PM,73.9,66.0,76,29.79,10.0,NNW,6.9,-,N/A,,Overcast,340,2013-09-02 19:53:00
4:01 PM,75.2,66.2,73,29.80,10.0,NNW,9.2,-,N/A,,Overcast,330,2013-09-02 20:01:00
4:08 PM,75.2,66.2,73,29.80,10.0,NNW,8.1,-,N/A,,Overcast,330,2013-09-02 20:08:00
4:53 PM,73.9,66.0,76,29.79,10.0,NNW,12.7,-,N/A,,Overcast,340,2013-09-02 20:53:00
5:04 PM,73.4,64.4,73,29.80,10.0,NNW,11.5,-,N/A,,Overcast,330,2013-09-02 21:04:00
5:53 PM,75.0,61.0,62,29.80,10.0,NNW,9.2,-,N/A,,Clear,340,2013-09-02 21:53:00
6:53 PM,75.0,62.1,64,29.81,10.0,North,6.9,-,N/A,,Scattered Clouds,350,2013-09-02 22:53:00
7:53 PM,73.0,62.1,68,29.81,10.0,North,6.9,-,N/A,,Overcast,350,2013-09-02 23:53:00
8:53 PM,72.0,62.1,71,29.81,10.0,NNW,4.6,-,N/A,,Mostly Cloudy,330,2013-09-03 00:53:00
9:53 PM,72.0,62.1,71,29.83,10.0,NNW,15.0,-,N/A,,Overcast,340,2013-09-03 01:53:00
10:53 PM,70.0,60.1,71,29.84,10.0,North,13.8,-,N/A,,Overcast,350,2013-09-03 02:53:00
11:53 PM,69.1,60.1,73,29.85,10.0,North,13.8,-,N/A,,Overcast,350,2013-09-03 03:53:00